Location: Favalello
(42.2939°N, 9.2706°E)
Time: 15:42:27
(UTC+00:00)

NOAA 11 - Pass Details

Date: 06 December 2019
Orbit: 833 x 849 km, 98.4° (Epoch: 19 January)

Event Time Altitude Azimuth Distance (km) Brightness Sun altitude
Rises 17:58:56 0° 160° (SSE) 3,374 7.2 -23.0°
Reaches altitude 10° 18:01:17 10° 159° (SSE) 2,446 6.5 -23.4°
Maximum altitude 18:06:42 78° 74° (ENE) 865 4.0 -24.4°
Drops below altitude 10° 18:12:11 10° 349° (N) 2,473 6.6 -25.4°
Sets 18:14:34 0° 349° (NNW) 3,414 7.4 -25.9°
